NOAA 16 DEB, 41661

Orbit data source: Space-Track

NOAA 16 DEB, 41661 is space debris in SSO originally from a launch on Thu, 21 Sep 2000 UTC launched from the Air Force Western Test Range (AFWTR). Debris objects in space refer to the collection of defunct objects orbiting the Earth. Examples of debris include non-operational satellites, rocket bodies, and fragments generated from explosions, collisions, or faulty payload assembly.

Loading next visibility...
Identifier
41661, 2000-055PA
Orbit
SSO
Country
Flag of USUS
Related business
Manufacturer
Unknown
Mission
Spacecraft
Bus & Motor
Unknown
Mass
Unknown
Launch date (UTC)
2000-09-21 (26 years ago)
Launch vehicle
Unknown
Launch site
Air Force Western Test Range (AFWTR)
Object type
Payload
Rocket body
Debris
Shape & HBR
Unknown shape, 0.1 m
Radar Cross Section
Medium (>0.1 m² and <1 m²)

Expand to show TLE details & history
Last TLE update: 1 day ago

TLE from 1 day ago
0 NOAA 16 DEB
1 41661U 00055PA  26254.37128371  .00003030  00000-0  87244-3 0  9993
2 41661  99.0280 100.6593 0020459 349.5311  10.5450 14.45424326540175
Epoch: 2026-09-11T08:54Z
TLE epoch observation values (Epoch: 2026-09-11T08:54:38.912Z)
Latitude
-0°
Longitude
-23.39843°
Altitude
729.251 km
Speed
7.498 km/s
True Right ascension
06h 42m 38s
True Declination
0° 00' 00"
Sunlit
Object was in daylight at epoch
Visualization orbit readout
Latitude
Unknown
Longitude
Unknown
Altitude
Unknown
Speed
Unknown
Apparent Right ascension
Unknown
Apparent Declination
Unknown
Sunlit
N/A
Visualization observer readout
Local Sidereal Time
08:57:52
Azimuth
Unknown
Elevation
Unknown
Doppler factor
Unknown
Orbital elements
Apogee altitude
752.331 km
Perigee altitude
723.215 km
Semi-major axis
7,115.91 km
Eccentricity
0.00205
Inclination
99.028°
RAAN
100.6593°
Arg. of periapsis
349.5311°
True anomaly
10.58801°
Mean anomaly
10.545°
Eccentric anomaly
10.5665°
Mean motion
3.61574 °/min
Orbital period
99.56 mins
BSTAR
0.00087244
Loading maneuver chart data...
Computing Atmospheric mass density...
Loading historical data...
Loading historical data...
Loading historical data...
Loading historical data...
Loading historical data...
Loading historical data...
Loading historical data...

Documentation

Showing up to 5 results
|